Погода в Таллинне

Погода в Таллинне : погода сейчас, прогноз погоды и архив. Всё, что Вы хотите узнать о погоде в Таллинне!

Поиск расширенной информации на нашем сайте:

Другие новости

Новости СМИ2

Главная страница сайта

Новости сайта

03.07.2017

Напоминаем, что на нашем специализированном сайте Метеоцентр.Азия вы можете получить высокодетализированные автоматические прогнозы погоды по пунктам России, СНГ и мира в авиационном формате (включающие направление и скорость ветра, видимость, явления погоды, количество и форму облачности, нижнюю и верхнюю границу облачности).


Погода в Таллинне - сегодня

Время (UTC), дата Ветер
(°,м/с) 
Видим.   Явления Облачность Т
(°С)
Тd
(°С)
f(%) Тe
(°С)
Pmin
(гПа)
dP
(гПа)
Po
(мм)
O2
(г/м3)
Тmin Tmax R s Состояние
почвы
09 12.10.18 170 (Ю) 17000 м  {туман}  9/9 150 м 
[St]
+11.6 +9.7 88 +11  1029.2  769  295  +9.2  +11.7       
12 12.10.18 170 (Ю) 20000 м  {туман}  3/1 средняя, верхняя 
[Ac trans|Ci fib]
+14.3 +10.2 76 +15  1027.9  -1.3  768  292  +9.8  +14.3       
15 12.10.18 200 (Ю) 20000 м    ясно 
+14.1 +10.8 81 +17  1027.3  -0.6  767  292  +9.8  +15.2       
18 12.10.18 200 (Ю) 20000 м    ясно 
+12.3 +8.8 79 +12  1026.7  -0.6  767  294  +9.8  +15.2       
21 12.10.18 200 (Ю) 20000 м    ясно 
[]
+11.9 +9.4 85 +11  1026.6  0.1  767  294  +11.3  +15.2       
00 13.10.18 200 (Ю) 19000 м    8/0 верхняя 
[Ci fib]
+11.9 +9.7 86 +12  1025.6  -1  766  294  +11.7  +15.2       
03 13.10.18 200 (Ю) 17000 м    8/0 верхняя 
[Cc]
+11 +9.3 89 +11  1025.2  -0.4  766  295  +11  +14.2       
06 13.10.18 200 (Ю) 13000 м    8/0 верхняя 
[Cc]
+10.9 +9.3 90 +10  1024.9  -0.3  766  295  +10.4  +12.4       
09 13.10.18 210 (ЮЗ) 18000 м    8/0 верхняя 
[Ci fib]
+15.1 +11.1 77 +17  1025.3  0.4  766  290  +10.4  +15.2       
12 13.10.18 220 (ЮЗ) 20000 м    9/0 верхняя 
[Cs]
+17.8 +12.3 70 +22  1025.2  -0.1  766  287  +10.4  +17.8       
15 13.10.18 210 (ЮЗ) 18000 м    9/0 верхняя 
[Cs]
+15.9 +12 78 +19  1025  -0.2  766  289  +10.4  +17.8       
18 13.10.18 220 (ЮЗ) 11000 м    9/0 верхняя 
[Cs]
+13.3 +10.8 85 +15  1025.3  0.3  766  292  +10.9  +17.8       
21 13.10.18 210 (ЮЗ) 13000 м    3/0 верхняя 
[Ci fib]
+12.5 +9.8 84 +13  1025.2  -0.1  766  293  +12.5  +17.8       
00 14.10.18 220 (ЮЗ) 11000 м    ясно 
+12.3 +10 86 +14  1024.7  -0.5  765  293  +12.3  +17.8       
03 14.10.18 210 (ЮЗ) 10 км    ясно 
+11.2 +9.1 87 +11  1024.7  765  295  +11.2  +15.9       
06 14.10.18 200 (Ю) 8000 м  дымка  ясно 
+11.3 +9.8 90 +12  1024.5  -0.2  765  294  +10.6  +13.6       
09 14.10.18 190 (Ю) 14000 м    ясно 
+15.1 +11.4 79 +18  1024.7  0.2  765  290  +10.6  +15.1       
12 14.10.18 200 (Ю) 17000 м    ясно 
+18.6 +12 65 +22  1023.7  -1  765  286  +10.6  +18.6       
15 14.10.18 190 (Ю) 20000 м    ясно 
+16.5 +11.2 71 +19  1023  -0.7  764  288  +10.6  +19       
18 14.10.18 180 (Ю) 15000 м    ясно 
+12.3 +9.8 85 +14  1022.4  -0.6  764  293  +11.3  +19       
21 14.10.18 190 (Ю) 20000 м    ясно 
+12.2 +9.2 82 +12  1021.5  -0.9  763  293  +12.2  +19       
00 15.10.18 190 (Ю) 20000 м    ясно 
+11.3 +8.9 85 +12  1020.8  -0.7  763  294  +11.2  +19       
03 15.10.18 200 (Ю) 20000 м    ясно 
+10.9 +7.8 81 +10  1020.2  -0.6  762  294  +10.8  +16.5       
06 15.10.18 190 (Ю) 20000 м    ясно 
+10.6 +7.3 80 +10  1019.7  -0.5  762  294  +10  +13.1       
09 15.10.18 200 (Ю) 4{08}  20000 м    ясно 
+14.6 +8.8 68 +14  1020  0.3  762  290  +10  +14.8       
Время (UTC), дата Ветер
(°,м/с) 
Видим.   Явления Облачность Т
(°С)
Тd
(°С)
f(%) Тe
(°С)
Pmin
(гПа)
dP
(гПа)
Po
(мм)
O2
(г/м3)
Тmin Tmax R s Состояние
почвы

Для получения пояснительной информации подведите курсор к названию столбца.

ПОГОДА в Таллинне - архив

Всё, что Вы хотите узнать о погоде в Таллинне - удобно и подробно!

Выберите нужную дату (начиная с 1 января 2015* года) и нажмите кнопку "Найти".
Будут отображены архивные сводки погоды по пункту Таллинн, начиная с указанной даты.


Отображать данные в формате CSV (для использования в таблицах Excel)


Внимание! Наш архив погоды предназначен исключительно для личного некоммерческого использования в познавательных целях. Если Вам необходимы официальные справки о состоянии погоды (для производственных, юридических, коммерческих и т.п. целей), обращайтесь в органы Росгидромета.

*Примечание: данная дата относится к архиву по метеостанциям СССР (Россия, СНГ, Балтия).
Архив по метеостанциям Зарубежной Европы и Азии (кроме Китая) хранится 10 дней, по другим регионам земного шара (Китай, Африка, Америка, Австралия, Океания) - 1 день.

Таллинн - район местоположения метеостанции


Название, широта, долгота, высота метеостанции:
Таллинн 59.4°ш. 24.6°д. 34 м над ур. моря [Эстония]

Дополнительная информация

В oтличие oт бoльшинства пoгoдных сайтoв мы публикуем пoдрoбную метеoинфoрмацию в детальнoм прoфессиoнальнoм фoрмате.

Характеристики температуры и влажнoсти вoздуха измеряются на высoте 2 м в тени вдали oт зданий и деревьев.
Скoрoсть ветра измеряется на высoте 10 м (на урoвне рoста челoвека скoрoсть ветра ниже в 1.5-2 раза). Если метеoстанция нахoдится в гoрoде или в лесу, тo скoрoсть ветра занижена на 2-4 м/с пo сравнению с oткрытым местoм. Скoрoсть ветра над акватoриями крупных рек и oзёр, а также на вершинах хoлмoв на 2-5 м/с выше, чем в oбычных услoвиях.
Атмoсфернoе давление в разных тoчках местнoсти мoжет значительнo oтличаться oт давления на метеoстанции, в зависимoсти oт услoвий рельефа (при пoдъёме на 10 м давление пoнижается примернo на 1 мм рт.ст.).